Terminal Aerodrome Forecast
Issued by NWS Cleveland, OH

Home | Current Version | Previous Version | Graphics & Text | Print | Product List | Glossary On
Versions: 1 2 3 4 5 6 7 8 9 10 11 12 13 14 15 16 17 18 19 20
916
FTUS41 KCLE 061720
TAFCAK
TAF
KCAK 061720Z 0618/0718 25007KT P6SM SCT060 BKN250
     FM070500 20005KT P6SM SCT025 BKN060=

USA.gov is the U.S. government's official web portal to all federal, state and local government web resources and services.